Weather History for North Padre Island, TX

Change the Weather History Date:

Saturday, January 19, 2013

  Actual Average Record
Temperature  
Mean Temperature 65 °F -  
Max Temperature 66 °F - - ()
Min Temperature 64 °F - - ()
Growing Degree Days 15 (Base 50)    
Moisture  
Dew Point 50 °F    
Average Humidity 57    
Maximum Humidity 68    
Minimum Humidity 52    
Precipitation  
Precipitation 0.00 in - - ()
Sea Level Pressure  
Sea Level Pressure 30.24 in    
Wind  
Wind Speed 8 mph (ESE)    
Max Wind Speed 12 mph    
Max Gust Speed -    
Visibility 10 miles    
Events      
T = Trace of Precipitation, MM = Missing Value Source: NWS Daily Summary

Daily Weather History Graph

Daily Weather History Graph

Search for Another Location

Airport:

Trip Planner

Search our weather history database for the weather conditions in past years. The results will help you decide how hot, cold, wet, or windy it might be!

Date:

Astronomy

Jan. 19, 2013 Rise Set
Actual Time 7:17 AM CST 6:00 PM CST
Civil Twilight 6:52 AM CST 6:24 PM CST
Nautical Twilight 6:24 AM CST 6:53 PM CST
Astronomical Twilight 5:56 AM CST 7:21 PM CST
Moon 12:20 PM CST (1/19) 1:00 AM CST (1/19)
Length of Visible Light 11h 32m
Length of Day
10h 42m
First Quarter, 57% of the Moon is Illuminated
Jan 19
First Quarter
Jan 26
Full
Feb 3
Last Quarter
Feb 10
New
Feb 17
First Quarter

Hourly Weather History & Observations

Time (CST) Temp. Dew Point Humidity Pressure Visibility Wind Dir Wind Speed Gust Speed Precip Events Conditions
12:15 AM 64.4 °F 46.4 °F 52% 30.31 in 10.0 mi ESE 8.1 mph - N/A   Clear
12:35 AM 64.4 °F 48.2 °F 56% 30.30 in 10.0 mi SE 8.1 mph - N/A   Clear
12:55 AM 64.4 °F 48.2 °F 56% 30.30 in 10.0 mi SE 6.9 mph - N/A   Partly Cloudy
1:15 AM 64.4 °F 48.2 °F 56% 30.30 in 10.0 mi SE 9.2 mph - N/A   Clear
1:35 AM 64.4 °F 46.4 °F 52% 30.29 in 10.0 mi SE 8.1 mph - N/A   Partly Cloudy
1:55 AM 64.4 °F 48.2 °F 56% 30.28 in 10.0 mi ESE 6.9 mph - N/A   Partly Cloudy
2:15 AM 64.4 °F 48.2 °F 56% 30.27 in 10.0 mi ESE 8.1 mph - N/A   Clear
2:35 AM 64.4 °F 48.2 °F 56% 30.27 in 10.0 mi ESE 8.1 mph - N/A   Partly Cloudy
2:55 AM 64.4 °F 50.0 °F 59% 30.26 in 10.0 mi East 6.9 mph - N/A   Partly Cloudy
3:15 AM 64.4 °F 50.0 °F 59% 30.26 in 10.0 mi ESE 6.9 mph - N/A   Scattered Clouds
3:35 AM 64.4 °F 50.0 °F 59% 30.26 in 10.0 mi ESE 6.9 mph - N/A   Mostly Cloudy
3:55 AM 64.4 °F 50.0 °F 59% 30.25 in 10.0 mi ESE 6.9 mph - N/A   Mostly Cloudy
4:15 AM 64.4 °F 50.0 °F 59% 30.25 in 10.0 mi ESE 9.2 mph - N/A   Partly Cloudy
4:35 AM 64.4 °F 50.0 °F 59% 30.24 in 10.0 mi ESE 9.2 mph - N/A   Partly Cloudy
4:55 AM 64.4 °F 50.0 °F 59% 30.24 in 10.0 mi ESE 9.2 mph - N/A   Partly Cloudy
5:15 AM 64.4 °F 48.2 °F 56% 30.25 in 10.0 mi SE 8.1 mph - N/A   Scattered Clouds
5:35 AM 64.4 °F 48.2 °F 56% 30.25 in 10.0 mi SE 6.9 mph - N/A   Partly Cloudy
5:55 AM 64.4 °F 50.0 °F 59% 30.25 in 10.0 mi ESE 6.9 mph - N/A   Mostly Cloudy
6:15 AM 64.4 °F 50.0 °F 59% 30.25 in 10.0 mi SE 8.1 mph - N/A   Mostly Cloudy
6:35 AM 64.4 °F 48.2 °F 56% 30.26 in 10.0 mi SE 6.9 mph - N/A   Partly Cloudy
6:55 AM 64.4 °F 50.0 °F 59% 30.26 in 10.0 mi SSE 8.1 mph - N/A   Clear
7:15 AM 64.4 °F 50.0 °F 59% 30.27 in 10.0 mi SSE 6.9 mph - N/A   Clear
7:35 AM 64.4 °F 48.2 °F 56% 30.27 in 10.0 mi SE 6.9 mph - N/A   Clear
7:55 AM 64.4 °F 48.2 °F 56% 30.27 in 10.0 mi SSE 8.1 mph - N/A   Clear
8:15 AM 64.4 °F 48.2 °F 56% 30.28 in 10.0 mi SSE 5.8 mph - N/A   Partly Cloudy
8:35 AM 64.4 °F 48.2 °F 56% 30.28 in 10.0 mi SE 3.5 mph - N/A   Clear
8:55 AM 64.4 °F 48.2 °F 56% 30.29 in 10.0 mi SE 5.8 mph - N/A   Clear
9:35 AM 66.2 °F 48.2 °F 52% 30.30 in 10.0 mi SE 5.8 mph - N/A   Clear
9:55 AM 66.2 °F 48.2 °F 52% 30.31 in 10.0 mi ESE 5.8 mph - N/A   Clear
10:15 AM 66.2 °F 48.2 °F 52% 30.31 in 10.0 mi ESE 5.8 mph - N/A   Clear
10:35 AM 66.2 °F 48.2 °F 52% 30.31 in 10.0 mi SE 5.8 mph - N/A   Clear
10:55 AM 66.2 °F 50.0 °F 56% 30.31 in 10.0 mi SE 5.8 mph - N/A   Clear
11:15 AM 66.2 °F 50.0 °F 56% 30.30 in 10.0 mi SE 5.8 mph - N/A   Clear
11:35 AM 66.2 °F 50.0 °F 56% 30.29 in 10.0 mi SE 6.9 mph - N/A   Clear
11:55 AM 66.2 °F 48.2 °F 52% 30.28 in 10.0 mi ESE 4.6 mph - N/A   Clear
12:15 PM 66.2 °F 48.2 °F 52% 30.27 in 10.0 mi ESE 4.6 mph - N/A   Clear
12:35 PM 66.2 °F 48.2 °F 52% 30.26 in 10.0 mi ESE 5.8 mph - N/A   Clear
12:55 PM 66.2 °F 48.2 °F 52% 30.25 in 10.0 mi SE 5.8 mph - N/A   Clear
1:15 PM 66.2 °F 50.0 °F 56% 30.23 in 10.0 mi SE 6.9 mph - N/A   Clear
1:35 PM 66.2 °F 50.0 °F 56% 30.22 in 10.0 mi ESE 6.9 mph - N/A   Clear
1:55 PM 66.2 °F 48.2 °F 52% 30.21 in 10.0 mi SE 6.9 mph - N/A   Clear
2:15 PM 66.2 °F 50.0 °F 56% 30.20 in 10.0 mi SE 6.9 mph - N/A   Clear
2:55 PM 66.2 °F 50.0 °F 56% 30.19 in 10.0 mi SE 8.1 mph - N/A   Clear
3:15 PM 66.2 °F 50.0 °F 56% 30.19 in 10.0 mi SE 8.1 mph - N/A   Clear
3:35 PM 66.2 °F 50.0 °F 56% 30.18 in 10.0 mi ESE 8.1 mph - N/A   Clear
3:55 PM 66.2 °F 50.0 °F 56% 30.18 in 10.0 mi ESE 8.1 mph - N/A   Clear
4:15 PM 66.2 °F 50.0 °F 56% 30.17 in 10.0 mi East 9.2 mph - N/A   Clear
4:35 PM 66.2 °F 50.0 °F 56% 30.16 in 10.0 mi East 8.1 mph - N/A   Clear
4:55 PM 66.2 °F 50.0 °F 56% 30.17 in 10.0 mi East 8.1 mph - N/A   Clear
5:15 PM 66.2 °F 50.0 °F 56% 30.18 in 10.0 mi East 8.1 mph - N/A   Clear
5:35 PM 66.2 °F 50.0 °F 56% 30.18 in 10.0 mi East 9.2 mph - N/A   Clear
5:55 PM 66.2 °F 50.0 °F 56% 30.18 in 10.0 mi East 10.4 mph - N/A   Clear
6:15 PM 66.2 °F 50.0 °F 56% 30.18 in 10.0 mi East 10.4 mph - N/A   Clear
6:35 PM 66.2 °F 51.8 °F 60% 30.18 in 10.0 mi East 11.5 mph - N/A   Clear
6:55 PM 66.2 °F 50.0 °F 56% 30.19 in 10.0 mi East 11.5 mph - N/A   Clear
7:15 PM 66.2 °F 50.0 °F 56% 30.20 in 10.0 mi East 11.5 mph - N/A   Clear
7:35 PM 66.2 °F 51.8 °F 60% 30.20 in 10.0 mi ESE 11.5 mph - N/A   Clear
7:55 PM 66.2 °F 50.0 °F 56% 30.20 in 10.0 mi ESE 11.5 mph - N/A   Clear
8:15 PM 66.2 °F 51.8 °F 60% 30.21 in 10.0 mi ESE 10.4 mph - N/A   Clear
8:35 PM 66.2 °F 51.8 °F 60% 30.22 in 10.0 mi ESE 10.4 mph - N/A   Clear
8:55 PM 66.2 °F 50.0 °F 56% 30.22 in 10.0 mi ESE 10.4 mph - N/A   Clear
9:15 PM 66.2 °F 51.8 °F 60% 30.23 in 10.0 mi SE 9.2 mph - N/A   Clear
9:35 PM 66.2 °F 51.8 °F 60% 30.24 in 10.0 mi SE 9.2 mph - N/A   Clear
9:55 PM 66.2 °F 53.6 °F 64% 30.23 in 10.0 mi SE 9.2 mph - N/A   Clear
10:15 PM 66.2 °F 51.8 °F 60% 30.23 in 10.0 mi SE 9.2 mph - N/A   Clear
10:35 PM 66.2 °F 53.6 °F 64% 30.22 in 10.0 mi SE 10.4 mph - N/A   Clear
10:55 PM 66.2 °F 53.6 °F 64% 30.23 in 10.0 mi SE 9.2 mph - N/A   Clear
11:15 PM 66.2 °F 55.4 °F 68% 30.23 in 10.0 mi SE 9.2 mph - N/A   Clear
11:35 PM 66.2 °F 55.4 °F 68% 30.22 in 10.0 mi SSE 9.2 mph - N/A   Clear
11:55 PM 66.2 °F 55.4 °F 68% 30.22 in 10.0 mi SSE 9.2 mph - N/A   Clear